Location: New Plymouth
(39.0670°S, 174.0830°E)
Time: 08:37:13
(UTC+13:00)

Cosmos 841 Rocket - Pass Details

Date: 24 January 2019
Orbit: 748 x 771 km, 74.0° (Epoch: 19 February)

Event Time Altitude Azimuth Distance (km) Brightness Sun altitude
Rises 22:54:17 0° 204° (SSW) 3,281 8.1 -20.6°
Reaches altitude 10° 22:56:45 10° 209° (SSW) 2,346 7.1 -20.9°
Maximum altitude 23:01:54 51° 283° (WNW) 971 4.1 -21.5°
Enters shadow 23:04:12 30° 342° (NNW) 1,356 4.5 -21.8°
